Location: Central Falls
(41.8900°N, 71.3929°W)
Time: 10:49:28
(UTC+00:00)

A-11 Canister half - Pass Details

Date: 09 December 2023
Orbit: 1512 x 1687 km, 47.2° (Epoch: 20 February)

Event Time Altitude Azimuth Distance (km) Brightness Sun altitude
Rises 12:36:08 0° 286° (WNW) 4,908 11.0 4.6°
Reaches altitude 10° 12:41:53 10° 261° (W) 3,938 10.8 5.4°
Maximum altitude 12:45:36 13° 239° (WSW) 3,734 10.9 6.0°
Drops below altitude 10° 12:49:20 10° 216° (SW) 3,944 11.2 6.5°
Sets 12:55:11 0° 191° (S) 4,922 12.1 7.4°
